This demonstration page uses our WeatherBlox Daily Observations layout. Learn more.

Left ArrowRight Arrow

44.8408, -93.29828

Hourly Observations for August 24, 2019

Temp ( °F °C ) Dew Point ( °F °C ) Humidity (%) Winds ( mph kmh ) Pressure ( in mb ) Visibility ( mi km ) Precip ( " mm )
12:53 am 00:53 Clear 65 18.3 57 13.9 76 76 SSE 9 15 30.21 1023 10 16 0.00 0.00
1:53 am 01:53 Mostly Clear 63 17.2 56 13.3 78 78 SE 8 13 30.22 1023 10 16 0.00 0.00
2:53 am 02:53 Mostly Cloudy 63 17.2 57 13.9 81 81 SSE 7 11 30.23 1024 10 16 0.00 0.00
3:53 am 03:53 Mostly Cloudy 62 16.7 57 13.9 84 84 SSE 6 9 30.22 1024 10 16 0.00 0.00
4:53 am 04:53 Mostly Cloudy 63 17.2 56 13.3 78 78 SSE 9 15 30.23 1024 10 16 0.00 0.00
5:53 am 05:53 Cloudy 63 17.2 56 13.3 78 78 SE 9 15 30.23 1024 10 16 0.00 0.00
6:53 am 06:53 Cloudy 63 17.2 56 13.3 78 78 SSE 9 15 30.25 1024 10 16 0.00 0.00
7:53 am 07:53 Cloudy 64 17.8 55 12.8 73 73 SSE 10 17 30.26 1025 10 16 0.00 0.00
8:53 am 08:53 Cloudy 65 18.3 55 12.8 70 70 SSE 10 17 30.25 1024 10 16 0.00 0.00
9:53 am 09:53 Mostly Cloudy 67 19.4 56 13.3 68 68 SSE 9 15 30.24 1024 10 16 0.00 0.00
10:53 am 10:53 Mostly Cloudy 69 20.6 55 12.8 61 61 SSE 14 22 30.24 1024 10 16 0.00 0.00
11:53 am 11:53 Partly Cloudy 71 21.7 56 13.3 59 59 SSE 13 20 30.22 1024 10 16 0.00 0.00
12:53 pm 12:53 Partly Cloudy 73 22.8 54 12.2 51 51 SSE 13 20 30.21 1023 10 16 0.00 0.00
1:53 pm 13:53 Mostly Cloudy 75 23.9 54 12.2 48 48 SE 13 20 30.19 1022 10 16 0.00 0.00
2:53 pm 14:53 Partly Cloudy 74 23.3 52 11.1 46 46 SE 13 20 30.18 1022 10 16 0.00 0.00
3:53 pm 15:53 Mostly Cloudy 75 23.9 54 12.2 48 48 SE 16 26 30.16 1021 10 16 0.00 0.00
4:53 pm 16:53 Partly Cloudy 74 23.3 53 11.7 48 48 SE 12 19 30.15 1021 10 16 0.00 0.00
5:53 pm 17:53 Partly Cloudy 74 23.3 53 11.7 48 48 SE 15 24 30.14 1021 10 16 0.00 0.00
6:53 pm 18:53 Partly Cloudy 71 21.7 54 12.2 55 55 SE 12 19 30.14 1021 10 16 0.00 0.00
7:53 pm 19:53 Partly Cloudy 70 21.1 54 12.2 57 57 SE 9 15 30.14 1021 10 16 0.00 0.00
8:53 pm 20:53 Partly Cloudy 69 20.6 54 12.2 59 59 SE 8 13 30.13 1020 10 16 0.00 0.00
9:53 pm 21:53 Partly Cloudy 67 19.4 55 12.8 66 66 SE 9 15 30.12 1020 10 16 0.00 0.00
10:53 pm 22:53 Partly Cloudy 65 18.3 55 12.8 70 70 SSE 9 15 30.11 1020 10 16 0.00 0.00
11:53 pm 23:53 Partly Cloudy 64 17.8 55 12.8 73 73 SSE 10 17 30.11 1020 10 16 0.00 0.00

Powered by AerisWeather